Flag for U.S.A. Weather past 2 weeks in Wichita, Kansas, U.S.A.

Now
40 °F

Light rain. Mostly cloudy.


Feels Like: 34 °F
Forecast: 38 / 43 °F
Wind: 8 mph from Northeast

Location: Wichita Mid-Continent Airport

Current Time: Jan 30, 2015 at 11:51:57 PM

Latest Report: Jan 30, 2015 at 10:53 PM


Visibility: 10 mi

Pressure: 30.31 "Hg

Humidity: 60%

Dew point: 27 °F

Location of WichitaLocation

Historic Weather in Wichita — Graph

°F

Wichita temperature yesterday

Maximum temperature yesterday: 52 °F (at 12:53 AM)
Minimum temperature yesterday: 30 °F (at 10:53 PM)
Average temperature yesterday: 44 °F

Past Weeks' High & Low Weather Summary

 TemperatureHumidityPressure
High74 °F (Jan 26, 3:53 PM)97% (Jan 20, 9:53 AM)30.57 "Hg (Jan 20, 9:53 AM)
Low20 °F (Jan 23, 6:53 AM)18% (Jan 19, 3:53 PM)29.77 "Hg (Jan 28, 1:53 PM)
Average44 °F55%30.12 "Hg
* Reported Jan 15 9:53 PM — Jan 30 9:53 PM, Wichita, Weather by CustomWeather, © 2014

Note: Actual official high and low records may vary slightly from our data, if they occured in-between our weather recording intervals... More about our weather records

Advertising

Wichita weather history for previous 24 hours

 ConditionsComfort  
Time TempWeatherWind HumidityBarometerVisibility
9:53 PM
Jan 30
39 °FLight rain. Mostly cloudy.5 mph65%30.36 "Hg10 mi
8:53 PM40 °FOvercast.3 mph55%30.36 "Hg10 mi
7:53 PM41 °FOvercast.7 mph53%30.39 "Hg10 mi
6:53 PM41 °FMostly cloudy.7 mph55%30.39 "Hg10 mi
5:53 PM41 °FMostly cloudy.5 mph53%30.39 "Hg10 mi
4:53 PM42 °FOvercast.7 mph51%30.42 "Hg10 mi
3:53 PM42 °FOvercast.8 mph51%30.43 "Hg10 mi
2:53 PM42 °FOvercast.8 mph51%30.44 "Hg10 mi
1:53 PM42 °FMore clouds than sun.7 mph51%30.46 "Hg10 mi
12:53 PM41 °FOvercast.9 mph53%30.49 "Hg10 mi
11:53 AMN/AOvercast.8 mphN/A30.50 "Hg10 mi
10:53 AM37 °FOvercast.8 mph65%30.56 "Hg10 mi
9:53 AM34 °FOvercast.7 mph76%30.57 "Hg10 mi
8:53 AM30 °FOvercast.No wind82%30.57 "Hg10 mi
7:53 AM25 °FPartly sunny.No wind81%30.57 "Hg10 mi
6:53 AM29 °FPassing clouds.No wind75%30.56 "Hg10 mi
5:53 AM27 °FPassing clouds.5 mph78%30.54 "Hg10 mi
4:53 AM21 °FPassing clouds.3 mph81%30.55 "Hg10 mi
3:53 AM28 °FPassing clouds.5 mph78%30.53 "Hg10 mi
2:53 AM24 °FPassing clouds.No wind84%30.55 "Hg10 mi
1:53 AM27 °FPassing clouds.3 mph78%30.55 "Hg10 mi
12:53 AM26 °FPassing clouds.3 mph77%30.55 "Hg10 mi
11:53 PM
Jan 29
31 °FPassing clouds.No wind69%30.55 "Hg10 mi
Weather by CustomWeather, © 2014

See weather overviewHow to use our weather pages